IRIDIUM 71 [-] (25320 NORAD) Tracking and Keplerian Element Data

This shows tracking and keplerian element data for the satellite.

Feedback or suggestion? Click here.




ElementValue
Catalog25320
NameIRIDIUM 71 [-]
Epoch Orbit6010
Epoch Day198.73270106
Epoch Year2018
RAAN75.0553
Inclination86.3962
Eccentricity0.0004003
Argument of Perigee105.3437
Mean Anonmoly254.8204
Mean Motion14.39156697
Decay Rate7.3E-07
L11 25320U 98026B 18198.73270106 .00000073 00000-0 17109-4 0 9992
L22 25320 86.3962 75.0553 0004003 105.3437 254.8204 14.39156697 60106

Live tracking and technical data element details for IRIDIUM 71 [-] (NORAD 25320). IRIDIUM 71 [-] can be tracked NOW for your location showing map with azimuth and elevation plus other details from your city location.

Track the satellite on the map from your city or location and see movement details for azimuth, elevation, latitude, longitude, range, height, and movement on the map or in text.







IsCatalogInMostPopularTable: catalog: 25320, numindb: 31
Update: records affected: 1



GetName: 25320 IRIDIUM 71 [-]

Hit Count: updated at: Fri, 20 Jul 2018 07:04:21 GMT